Tracking 19706 objects as of 17-Jun-2019
HD Live streaming from Space Station
objects crossing your sky now

BLOCK DM-SL R/B

Track BLOCK DM-SL R/B now!


NORAD ID: 29046
Int'l Code: 2006-010B
Perigee: 1,664.3 km
Apogee: 35,625.8 km
Inclination: 0.0 °
Period: 656.3 minutes
Semi major axis: 25016 km
RCS: 20.8191 m2 (large)
Launch date: April 12, 2006
Source: Sea Launch (SEAL)
Launch site: SEA LAUNCH (SEAL)

Note: This is a ROCKET BODY
aabbcc
Your satellite tracking list
Your tracking list is empty




NASA's NSSDC Master Catalog

Two Line Element Set (TLE):
1 29046U 06010B   19167.89532204 -.00000084 +00000-0 +34947-1 0  9996
2 29046 000.0389 085.0783 6787938 065.2362 098.2019 02.19419609105653
Source of the keplerian elements: AFSPC